Total_Precipitation_Accumulation
0.37 0.29 0.31 0.34 0.31 0.31 0.45 0.47 0.37 0.20 0.18 0.20 0.18 0.19 0.21 0.21 0.20 0.19 0.16 0.19 0.25 0.30 0.31 0.35 0.43 0.52 0.54 0.50 0.46 0.44 0.48 0.56 0.62 0.66 0.73 0.76 0.77 0.88 1.06 1.04 0.91 0.82 0.79 0.82
0.30 0.23 0.24 0.25 0.22 0.25 0.28 0.28 0.24 0.16 0.18 0.19 0.17 0.15 0.17 0.20 0.21 0.23 0.22 0.22 0.25 0.30 0.31 0.38 0.44 0.53 0.62 0.55 0.49 0.41 0.44 0.51 0.57 0.66 0.78 0.80 0.76 0.79 0.90 0.99 0.95 0.87 0.81 0.79
0.44 0.23 0.39 0.43 0.31 0.29 0.29 0.27 0.28 0.29 0.24 0.19 0.19 0.19 0.21 0.23 0.24 0.26 0.26 0.27 0.28 0.31 0.35 0.42 0.45 0.51 0.60 0.57 0.53 0.45 0.45 0.51 0.56 0.59 0.73 0.80 0.79 0.84 0.86 0.91 0.98 1.00 0.89 0.80
0.71 0.52 0.78 0.41 0.22 0.23 0.26 0.29 0.31 0.28 0.23 0.21 0.23 0.23 0.22 0.25 0.29 0.31 0.30 0.29 0.29 0.33 0.39 0.40 0.44 0.46 0.51 0.54 0.52 0.49 0.49 0.55 0.59 0.56 0.61 0.74 0.84 0.85 0.86 0.87 0.89 0.95 0.94 0.85
1.10 0.80 0.47 0.23 0.20 0.25 0.31 0.34 0.28 0.22 0.20 0.19 0.18 0.16 0.17 0.17 0.22 0.29 0.29 0.28 0.30 0.34 0.38 0.39 0.39 0.40 0.47 0.51 0.50 0.52 0.57 0.59 0.59 0.54 0.55 0.66 0.74 0.81 0.84 0.85 0.82 0.84 0.86 0.85
1.27 0.96 0.47 0.30 0.20 0.17 0.24 0.43 0.26 0.20 0.21 0.19 0.19 0.26 0.21 0.16 0.20 0.27 0.24 0.25 0.28 0.32 0.32 0.35 0.38 0.38 0.45 0.51 0.46 0.50 0.54 0.59 0.56 0.50 0.46 0.47 0.58 0.73 0.80 0.82 0.78 0.78 0.79 0.80
1.11 0.88 0.40 0.28 0.20 0.19 0.40 0.49 0.24 0.20 0.21 0.20 0.23 0.29 0.23 0.19 0.22 0.25 0.20 0.21 0.24 0.27 0.30 0.36 0.39 0.36 0.41 0.49 0.49 0.49 0.53 0.58 0.53 0.49 0.48 0.48 0.53 0.66 0.75 0.83 0.84 0.78 0.75 0.76
0.83 0.92 0.52 0.28 0.28 0.42 0.48 0.27 0.19 0.17 0.16 0.17 0.16 0.15 0.15 0.17 0.21 0.23 0.19 0.18 0.18 0.21 0.26 0.32 0.35 0.35 0.41 0.48 0.50 0.53 0.55 0.52 0.52 0.53 0.52 0.52 0.55 0.63 0.74 0.83 0.89 0.83 0.75 0.73
0.62 0.56 0.40 0.32 0.39 0.40 0.30 0.21 0.15 0.15 0.14 0.14 0.14 0.14 0.16 0.18 0.20 0.22 0.20 0.19 0.19 0.20 0.23 0.29 0.32 0.35 0.42 0.48 0.46 0.50 0.50 0.49 0.49 0.52 0.52 0.52 0.58 0.65 0.74 0.82 0.86 0.84 0.76 0.71
0.46 0.32 0.26 0.27 0.28 0.27 0.22 0.18 0.15 0.15 0.15 0.14 0.14 0.14 0.16 0.18 0.19 0.20 0.21 0.20 0.20 0.22 0.24 0.30 0.33 0.34 0.40 0.45 0.41 0.40 0.42 0.46 0.45 0.50 0.54 0.57 0.61 0.66 0.71 0.80 0.88 0.80 0.73 0.68
0.41 0.26 0.22 0.21 0.22 0.22 0.18 0.16 0.15 0.16 0.16 0.15 0.15 0.15 0.16 0.19 0.19 0.21 0.24 0.23 0.22 0.24 0.25 0.31 0.36 0.38 0.41 0.40 0.38 0.37 0.37 0.45 0.51 0.53 0.58 0.62 0.64 0.67 0.70 0.73 0.87 0.85 0.73 0.71
0.37 0.26 0.27 0.25 0.22 0.20 0.19 0.19 0.19 0.19 0.18 0.15 0.17 0.20 0.18 0.19 0.20 0.22 0.25 0.27 0.25 0.25 0.28 0.33 0.37 0.44 0.44 0.39 0.36 0.38 0.41 0.45 0.52 0.57 0.58 0.59 0.59 0.62 0.70 0.73 0.78 0.76 0.73 0.73
0.21 0.21 0.22 0.21 0.19 0.19 0.18 0.18 0.19 0.19 0.19 0.18 0.17 0.19 0.22 0.22 0.22 0.23 0.26 0.29 0.31 0.31 0.33 0.36 0.39 0.45 0.44 0.38 0.35 0.36 0.43 0.46 0.50 0.57 0.55 0.52 0.52 0.52 0.57 0.68 0.78 0.77 0.74 0.73
0.12 0.15 0.17 0.16 0.15 0.14 0.14 0.15 0.15 0.15 0.16 0.16 0.16 0.17 0.21 0.22 0.20 0.22 0.26 0.32 0.36 0.34 0.35 0.37 0.40 0.43 0.43 0.36 0.33 0.35 0.40 0.47 0.49 0.52 0.53 0.52 0.51 0.51 0.52 0.57 0.67 0.72 0.75 0.74
0.07 0.09 0.12 0.10 0.09 0.09 0.10 0.11 0.12 0.13 0.12 0.12 0.13 0.15 0.18 0.22 0.24 0.26 0.29 0.34 0.37 0.36 0.36 0.39 0.43 0.48 0.45 0.37 0.35 0.36 0.41 0.43 0.43 0.47 0.52 0.54 0.53 0.55 0.56 0.57 0.61 0.65 0.70 0.81
0.08 0.08 0.08 0.08 0.08 0.09 0.10 0.11 0.12 0.12 0.11 0.11 0.12 0.13 0.16 0.21 0.26 0.31 0.35 0.37 0.39 0.40 0.41 0.43 0.46 0.50 0.46 0.38 0.37 0.37 0.43 0.50 0.48 0.49 0.53 0.55 0.56 0.59 0.63 0.66 0.68 0.68 0.70 0.78
0.14 0.12 0.11 0.10 0.09 0.09 0.10 0.11 0.11 0.11 0.11 0.12 0.13 0.13 0.14 0.18 0.22 0.28 0.33 0.38 0.41 0.42 0.42 0.43 0.46 0.48 0.46 0.43 0.41 0.39 0.42 0.47 0.54 0.52 0.51 0.53 0.57 0.60 0.65 0.70 0.72 0.69 0.65 0.73
0.17 0.16 0.12 0.11 0.10 0.10 0.09 0.09 0.09 0.11 0.13 0.13 0.13 0.14 0.16 0.20 0.24 0.29 0.34 0.36 0.37 0.42 0.45 0.46 0.48 0.50 0.48 0.50 0.46 0.44 0.44 0.46 0.48 0.49 0.51 0.55 0.59 0.62 0.67 0.72 0.72 0.71 0.70 0.76
0.13 0.13 0.11 0.10 0.10 0.09 0.10 0.10 0.11 0.12 0.13 0.13 0.14 0.16 0.18 0.21 0.25 0.29 0.34 0.35 0.35 0.39 0.45 0.47 0.52 0.49 0.49 0.53 0.53 0.48 0.49 0.51 0.52 0.50 0.51 0.62 0.66 0.63 0.67 0.72 0.75 0.75 0.76 0.78
0.13 0.12 0.11 0.09 0.09 0.09 0.11 0.12 0.11 0.11 0.12 0.13 0.16 0.17 0.18 0.22 0.25 0.29 0.33 0.34 0.37 0.40 0.42 0.47 0.48 0.46 0.47 0.55 0.59 0.53 0.55 0.57 0.57 0.54 0.54 0.59 0.65 0.68 0.69 0.72 0.76 0.78 0.78 0.78
0.14 0.11 0.10 0.10 0.09 0.09 0.11 0.13 0.13 0.12 0.13 0.15 0.19 0.22 0.24 0.27 0.29 0.31 0.32 0.32 0.33 0.37 0.39 0.44 0.44 0.44 0.46 0.57 0.64 0.59 0.59 0.60 0.60 0.59 0.59 0.61 0.66 0.70 0.72 0.73 0.75 0.77 0.78 0.79
0.14 0.14 0.13 0.11 0.11 0.13 0.14 0.15 0.16 0.16 0.15 0.16 0.20 0.24 0.26 0.29 0.29 0.30 0.31 0.31 0.32 0.38 0.39 0.38 0.38 0.44 0.52 0.59 0.60 0.59 0.59 0.59 0.61 0.63 0.65 0.65 0.71 0.76 0.74 0.73 0.77 0.77 0.78 0.80
0.16 0.16 0.16 0.17 0.18 0.19 0.17 0.17 0.18 0.19 0.19 0.19 0.21 0.25 0.28 0.30 0.30 0.31 0.32 0.32 0.34 0.41 0.41 0.40 0.44 0.51 0.59 0.56 0.55 0.57 0.58 0.59 0.61 0.64 0.68 0.71 0.73 0.77 0.78 0.77 0.78 0.79 0.83 0.85
0.19 0.18 0.20 0.21 0.21 0.22 0.20 0.19 0.20 0.22 0.24 0.25 0.25 0.27 0.31 0.32 0.31 0.30 0.33 0.39 0.43 0.46 0.44 0.47 0.53 0.56 0.60 0.55 0.54 0.57 0.62 0.65 0.66 0.70 0.74 0.77 0.79 0.81 0.81 0.80 0.81 0.80 0.82 0.84
0.23 0.22 0.22 0.22 0.23 0.25 0.26 0.24 0.23 0.24 0.25 0.27 0.28 0.28 0.32 0.35 0.38 0.37 0.38 0.41 0.46 0.50 0.49 0.53 0.58 0.59 0.57 0.58 0.59 0.62 0.68 0.71 0.77 0.86 0.88 0.84 0.83 0.84 0.80 0.77 0.81 0.84 0.84 0.82
0.27 0.27 0.28 0.28 0.29 0.30 0.30 0.29 0.28 0.27 0.26 0.29 0.31 0.33 0.37 0.40 0.41 0.42 0.43 0.45 0.48 0.53 0.53 0.53 0.55 0.60 0.62 0.67 0.70 0.72 0.78 0.81 0.84 0.84 0.80 0.78 0.78 0.78 0.76 0.75 0.77 0.81 0.82 0.81
0.31 0.31 0.32 0.33 0.34 0.34 0.35 0.36 0.37 0.37 0.35 0.38 0.41 0.41 0.42 0.45 0.48 0.50 0.50 0.52 0.53 0.55 0.57 0.58 0.61 0.66 0.72 0.75 0.79 0.82 0.84 0.85 0.84 0.83 0.79 0.78 0.78 0.76 0.75 0.75 0.77 0.78 0.77 0.74